Simultaneous Nadir Overpasses (SNOs) Predictions

Prediction of SNOs between AURA and NPP Satellite Orbit:

Table of predicted SNOs for the next 14.0 days since TLE Epoch: 4/4/2015
Index Date (AURA) Time (AURA) Lat,Lon (AURA) SZA (AURA ) Date (NPP) Time (NPP) Lat,Lon (NPP) SZA (NPP ) Distance(km) Time Diff (sec)
1 04/07/2015 00:24:46 -78.69,-114.02 92.94 04/07/2015 00:24:24 -78.70,-113.88 92.96 3.08 22
2 04/07/2015 01:14:04 79.00, 55.40 86.63 04/07/2015 01:15:00 79.00, 55.41 86.58 0.17 56
3 04/09/2015 15:54:19 71.14, 172.56 94.50 04/09/2015 15:53:06 71.35, 171.15 94.78 55.96 73
4 04/09/2015 16:41:14 -78.70, 1.91 93.98 04/09/2015 16:41:14 -78.70, 1.91 93.98 0.12 0
5 04/09/2015 17:27:38 81.25,-124.49 75.98 04/09/2015 17:28:51 80.59,-126.16 75.66 79.59 73
6 04/12/2015
